Flag for Canada Weather past 2 weeks in Kingston, Ontario, Canada

Now
63 °F

Overcast.


Feels Like: 63 °F
Forecast: 54 / 70 °F
Wind: 25 mph from South

Location: Kingston

Current Time: Sep 20, 2014 at 6:38:31 AM

Latest Report: Sep 20, 2014 at 6:00 AM


Visibility: 15 mi

Pressure: 30.07 "Hg

Humidity: 83%

Dew point: 57 °F

Location of KingstonLocation

Historic Weather in Kingston — Graph

°F

Kingston temperature yesterday

Maximum temperature yesterday: 59 °F (at 11:00 PM)
Minimum temperature yesterday: 34 °F (at 6:00 AM)
Average temperature yesterday: 48 °F

Past Weeks' High & Low Weather Summary

 TemperatureHumidityPressure
High81 °F (Sep 5, 2:00 PM)100% (Sep 8, 6:00 AM)30.40 "Hg (Sep 8, 6:00 AM)
Low34 °F (Sep 19, 6:00 AM)45% (Sep 16, 4:00 PM)29.54 "Hg (Sep 11, 7:00 AM)
Average60 °F76%30.09 "Hg
* Reported Sep 4 11:00 PM — Sep 19 11:00 PM, Kingston, Weather by CustomWeather, © 2014

Note: Actual official high and low records may vary slightly from our data, if they occured in-between our weather recording intervals... More about our weather records

Advertising

Kingston weather history for previous 24 hours

 ConditionsComfort  
Time TempWeatherWind HumidityBarometerVisibility
11:00 PM
Sep 19
59 °FPassing clouds.16 mph72%30.14 "Hg15 mi
10:00 PM45 °FPassing clouds.6 mph87%30.19 "Hg15 mi
9:00 PM48 °FPassing clouds.6 mph76%30.21 "Hg15 mi
8:00 PM45 °FPartly sunny.6 mph81%30.24 "Hg15 mi
7:00 PM50 °FPartly sunny.2 mph67%30.27 "Hg15 mi
6:00 PM52 °FPartly sunny.5 mph62%30.29 "Hg15 mi
5:00 PM54 °FPartly sunny.8 mph54%30.28 "Hg15 mi
4:00 PM54 °FScattered clouds.7 mph54%30.30 "Hg15 mi
3:00 PM54 °FPassing clouds.8 mph54%30.32 "Hg15 mi
2:00 PM54 °FPassing clouds.7 mph47%30.36 "Hg15 mi
1:00 PM52 °FPartly sunny.7 mph47%30.38 "Hg15 mi
12:00 PM50 °FPartly sunny.9 mph58%30.39 "Hg15 mi
11:00 AM50 °FScattered clouds.6 mph54%30.40 "Hg15 mi
10:00 AM46 °FPassing clouds.8 mph62%30.39 "Hg15 mi
9:00 AM43 °FPassing clouds.7 mph76%30.39 "Hg15 mi
8:00 AM39 °FPassing clouds.6 mph75%30.39 "Hg15 mi
7:00 AM34 °FPassing clouds.3 mph87%30.38 "Hg15 mi
6:00 AM34 °FClear.6 mph93%30.37 "Hg15 mi
Weather by CustomWeather, © 2014

See weather overviewHow to use our weather pages